sat.trackr.live / text

‹ back to catalog

STARLINK-35676

NORAD 67345 · 2026-003M

PAYLOAD ACTIVE UNKNOWN

§ Identity

Operator
Country
US
Launch date
2026-01-09
Launch site
AFETR
Launch vehicle
Mass (kg)
RCS (m²)

Purposes: comms

External: N2YO · Heavens-Above · Gunter

§ Orbital elements

Epoch: 2026-09-19T06:47:15.449280Z

Period
94.27 min
Inclination
42.9993°
Eccentricity
0.0001357
Mean motion
15.27586862 rev/d
Perigee alt
482.1 km
Apogee alt
484.0 km
Semi-major
6,861.2 km
B*
2.8841e-4
RAAN
213.5653°
Arg perigee
269.7761°
Mean anomaly
90.2935°
Rev number
3,843

§ Raw data

STARLINK-356761 67345U 26003M   26262.28281770  .00007684  00000+0  28841-3 0  99992 67345  42.9993 213.5653 0001357 269.7761  90.2935 15.27586862 38438

JSON: /api/v1/satellites/67345 · /tle

For live sub-satellite position, see the globe view (requires WebGL).

§ Visibility from observer

Set your observer location to see the next 7 days of passes ≥ 10°. The values pass through the URL so the page stays shareable.

No JS? Fill the form by hand. The geolocation button needs JavaScript.